Biloxi, MS

2:40 PM CST on February 20, 2017 (GMT -0600)
Keesler Air Force Base

Weather History for KBIX - June, 2013

Change the Weather History Date:

Friday, June 28, 2013

  Actual Average Record
Temperature  
Mean Temperature 87 °F -  
Max Temperature 95 °F 89 °F 98 °F (1954)
Min Temperature 81 °F 73 °F 60 °F (1974)
Cooling Degree Days 22    
Growing Degree Days 37 (Base 50)    
Moisture  
Dew Point 77 °F    
Average Humidity 73    
Maximum Humidity 91    
Minimum Humidity 56    
Precipitation  
Precipitation 0.00 in - - ()
Sea Level Pressure  
Sea Level Pressure 29.87 in    
Wind  
Wind Speed 5 mph (WSW)    
Max Wind Speed 16 mph    
Max Gust Speed 23 mph    
Visibility 10 miles    
Events      
Averages and records for this station are not official NWS values.
T = Trace of Precipitation, MM = Missing Value Source: NWS Daily Summary

Daily Weather History Graph

Daily Weather History Graph

Search for Another Location

Airport or City:

Trip Planner

Search our weather history database for the weather conditions in past years. The results will help you decide how hot, cold, wet, or windy it might be!

Date:

Astronomy

Jun. 28, 2013 Rise Set
Actual Time 5:56 AM CDT 8:01 PM CDT
Civil Twilight 5:28 AM CDT 8:29 PM CDT
Nautical Twilight 4:55 AM CDT 9:02 PM CDT
Astronomical Twilight 4:19 AM CDT 9:38 PM CDT
Moon 11:59 PM CDT (6/28) 11:37 AM CDT (6/28)
Length of Visible Light 15h 00m
Length of Day
14h 05m
Waning Gibbous, 66% of the Moon is Illuminated
Jun 28
Waning Gibbous
Jun 29
Last Quarter
Jul 8
New
Jul 15
First Quarter
Jul 22
Full

Hourly Weather History & Observations

Time (CDT) Temp. Heat Index Dew Point Humidity Pressure Visibility Wind Dir Wind Speed Gust Speed Precip Events Conditions
12:58 AM 83.8 °F 94.7 °F 78.3 °F 83% 29.94 in 10.0 mi West 3.5 mph - N/A   Clear
1:58 AM 83.3 °F 93.8 °F 78.4 °F 85% 29.94 in 10.0 mi West 3.5 mph - N/A   Clear
2:58 AM 82.8 °F 93.2 °F 79.0 °F 88% 29.92 in 10.0 mi WSW 5.8 mph - N/A   Clear
3:58 AM 83.1 °F 94.3 °F 79.2 °F 88% 29.90 in 10.0 mi WSW 9.2 mph - N/A   Clear
4:58 AM 82.6 °F 93.0 °F 79.2 °F 89% 29.91 in 10.0 mi Variable 5.8 mph - N/A   Clear
5:58 AM 81.7 °F 90.8 °F 78.8 °F 91% 29.92 in 10.0 mi Variable 2.3 mph - N/A   Clear
6:58 AM 81.7 °F 90.5 °F 78.6 °F 90% 29.93 in 10.0 mi Variable 3.5 mph - N/A   Clear
7:58 AM 84.0 °F 93.7 °F 77.0 °F 79% 29.95 in 10.0 mi Variable 3.5 mph - N/A   Clear
8:58 AM 86.0 °F 96.4 °F 76.6 °F 73% 29.94 in 10.0 mi Variable 2.3 mph - N/A   Clear
9:58 AM 88.5 °F 100.5 °F 76.6 °F 68% 29.93 in 10.0 mi Variable 4.6 mph - N/A   Clear
10:58 AM 91.4 °F 103.1 °F 75.9 °F 60% 29.92 in 10.0 mi Variable 4.6 mph - N/A   Clear
11:58 AM 91.4 °F 103.1 °F 75.7 °F 60% 29.91 in 10.0 mi Variable 4.6 mph - N/A   Mostly Cloudy
12:58 PM 93.9 °F 106.9 °F 75.9 °F 56% 29.90 in 10.0 mi WSW 4.6 mph - N/A   Mostly Cloudy
1:58 PM 93.4 °F 106.9 °F 76.6 °F 58% 29.87 in 10.0 mi Variable 4.6 mph - N/A   Mostly Cloudy
2:58 PM 91.6 °F 107.8 °F 78.6 °F 66% 29.84 in 10.0 mi WSW 16.1 mph - N/A   Partly Cloudy
3:58 PM 90.9 °F 106.4 °F 78.4 °F 67% 29.81 in 10.0 mi WSW 11.5 mph 23.0 mph N/A   Scattered Clouds
4:58 PM 90.0 °F 104.5 °F 78.1 °F 68% 29.81 in 10.0 mi WSW 13.8 mph - N/A   Mostly Cloudy
5:58 PM 91.9 °F 102.6 °F 74.8 °F 57% 29.80 in 10.0 mi Variable 2.3 mph - N/A   Mostly Cloudy
6:58 PM 91.0 °F 102.9 °F 75.7 °F 61% 29.80 in 10.0 mi Variable 2.3 mph - N/A   Scattered Clouds
7:58 PM 88.5 °F 98.8 °F 75.2 °F 65% 29.78 in 10.0 mi WSW 6.9 mph - N/A   Clear
8:58 PM 86.9 °F 96.8 °F 75.7 °F 69% 29.79 in 10.0 mi WSW 5.8 mph - N/A   Clear
9:58 PM 85.5 °F 94.6 °F 75.4 °F 72% 29.82 in 10.0 mi Calm Calm - N/A   Clear
10:58 PM 85.1 °F 94.1 °F 75.6 °F 73% 29.82 in 10.0 mi NW 1.2 mph - N/A   Partly Cloudy
11:58 PM 84.4 °F 93.9 °F 76.6 °F 77% 29.81 in 10.0 mi Variable 1.2 mph - N/A   Mostly Cloudy